GW4719 Weather Reports


time (UTC)temp
C
wind
direction
speed
KPH
gust
KPH
rain 1hr
cm
rain 24hr
cm
rain mn
cm
humidity
%
barometer
mb
20260510045430 10 204 0.0 1.6 0.00 0.00 0.00 77 1015.0
20260510044926 9 204 3.2 3.2 0.00 0.00 0.00 77 1014.8
20260510044423 9 204 0.0 4.8 0.00 0.00 0.00 77 1015.1
20260510043920 10 204 0.0 0.0 0.00 0.00 0.00 76 1014.8
20260510043416 10 204 0.0 1.6 0.00 0.00 0.00 76 1014.8
20260510042914 10 204 0.0 1.6 0.00 0.00 0.00 76 1015.0
20260510042410 10 204 0.0 1.6 0.00 0.00 0.00 76 1014.6
20260510041906 10 204 0.0 1.6 0.00 0.00 0.00 75 1014.6
20260510041403 10 204 0.0 0.0 0.00 0.00 0.00 75 1014.6
20260510040901 10 204 0.0 1.6 0.00 0.00 0.00 74 1014.5
20260510040358 10 204 0.0 3.2 0.00 0.00 0.00 74 1014.6
20260510035853 10 204 3.2 3.2 0.00 0.00 0.00 74 1014.7
20260510035349 10 204 0.0 0.0 0.00 0.00 0.00 73 1014.6
20260510034844 11 204 0.0 1.6 0.00 0.00 0.00 73 1014.6
20260510034343 10 204 0.0 3.2 0.00 0.00 0.00 73 1014.6
20260510033839 11 204 0.0 3.2 0.00 0.00 0.00 73 1014.6
20260510033336 11 211 0.0 1.6 0.00 0.00 0.00 72 1014.6
20260510032833 11 211 0.0 1.6 0.00 0.00 0.00 72 1014.6
20260510032330 11 211 1.6 1.6 0.00 0.00 0.00 71 1014.3
20260510031825 11 211 0.0 1.6 0.00 0.00 0.00 70 1014.6
20260510031320 11 211 0.0 1.6 0.00 0.00 0.00 69 1014.6
20260510030815 12 211 0.0 0.0 0.00 0.00 0.00 68 1014.5
20260510030311 12 211 0.0 3.2 0.00 0.00 0.00 68 1014.4
20260510025809 12 211 0.0 1.6 0.00 0.00 0.00 67 1014.4
20260510025306 12 210 0.0 1.6 0.00 0.00 0.00 67 1014.7
20260510024803 12 211 0.0 3.2 0.00 0.00 0.00 66 1014.3
20260510024300 12 210 1.6 3.2 0.00 0.00 0.00 65 1014.3
20260510023755 13 256 1.6 3.2 0.00 0.00 0.00 64 1014.3
20260510023253 13 256 0.0 3.2 0.00 0.00 0.00 64 1014.4
20260510022749 13 256 0.0 3.2 0.00 0.00 0.00 64 1014.3
20260510022249 13 256 0.0 1.6 0.00 0.00 0.00 63 1013.9
20260510021749 13 256 0.0 0.0 0.00 0.00 0.00 62 1014.0
20260510021247 13 256 0.0 3.2 0.00 0.00 0.00 61 1013.8
20260510020742 13 256 0.0 1.6 0.00 0.00 0.00 61 1013.7
20260510020242 13 256 0.0 1.6 0.00 0.00 0.00 61 1013.7
20260510015739 13 256 0.0 3.2 0.00 0.00 0.00 61 1013.5
20260510015235 14 256 1.6 1.6 0.00 0.00 0.00 60 1013.7
20260510014730 15 256 0.0 3.2 0.00 0.00 0.00 58 1013.4
20260510014228 15 256 3.2 3.2 0.00 0.00 0.00 55 1013.3
20260510013723 16 256 0.0 0.0 0.00 0.00 0.00 53 1013.2
20260510013219 16 256 0.0 0.0 0.00 0.00 0.00 53 1013.2
20260510012719 16 256 0.0 0.0 0.00 0.00 0.00 53 1013.1
20260510012214 16 256 0.0 0.0 0.00 0.00 0.00 52 1013.1
20260510011709 16 256 0.0 1.6 0.00 0.00 0.00 52 1013.0
20260510011205 16 256 0.0 0.0 0.00 0.00 0.00 52 1013.0
20260510010701 16 256 0.0 1.6 0.00 0.00 0.00 52 1013.1
20260510010158 16 256 0.0 0.0 0.00 0.00 0.00 52 1013.0
20260510005655 16 256 0.0 3.2 0.00 0.00 0.00 51 1012.7
20260510005151 17 256 0.0 1.6 0.00 0.00 0.00 50 1012.5
20260510004650 17 256 0.0 1.6 0.00 0.00 0.00 48 1012.7
20260510004147 17 256 0.0 3.2 0.00 0.00 0.00 47 1012.6
20260510003645 18 256 3.2 4.8 0.00 0.00 0.00 47 1012.5
20260510003140 18 256 3.2 4.8 0.00 0.00 0.00 46 1012.2
20260510002635 18 256 4.8 6.4 0.00 0.00 0.00 45 1012.0
20260510002132 18 248 4.8 6.4 0.00 0.00 0.00 45 1012.0
20260510001628 18 248 6.4 6.4 0.00 0.00 0.00 45 1011.8
20260510001128 18 245 3.2 4.8 0.00 0.00 0.00 44 1011.9
20260510000627 18 243 4.8 4.8 0.00 0.00 0.00 44 1011.6
20260510000125 19 242 3.2 4.8 0.00 0.00 0.00 43 1011.9
20260509235621 19 250 4.8 9.7 0.00 0.00 0.00 42 1011.6
20260509235118 20 250 6.4 6.4 0.00 0.00 0.00 42 1011.7
20260509234614 20 250 4.8 9.7 0.00 0.00 0.00 41 1011.7
20260509234112 21 251 6.4 6.4 0.00 0.00 0.00 40 1011.7
20260509233609 21 249 6.4 6.4 0.00 0.00 0.00 40 1011.7
20260509233106 21 263 6.4 6.4 0.00 0.00 0.00 40 1011.7
20260509232603 21 267 6.4 11.3 0.00 0.00 0.00 40 1011.7
20260509232100 21 269 6.4 12.9 0.00 0.00 0.00 39 1011.8
20260509231556 22 268 6.4 9.7 0.00 0.00 0.00 39 1011.7
20260509231054 22 277 4.8 4.8 0.00 0.00 0.00 39 1011.7
20260509230550 22 258 3.2 6.4 0.00 0.00 0.00 37 1011.7
20260509230048 22 289 6.4 11.3 0.00 0.00 0.00 37 1011.7
20260509225543 22 298 3.2 9.7 0.00 0.00 0.00 38 1011.7
20260509225039 22 281 3.2 4.8 0.00 0.00 0.00 38 1011.8
20260509224535 22 286 8.0 9.7 0.00 0.00 0.00 38 1011.6
20260509224032 21 252 6.4 6.4 0.00 0.00 0.00 38 1011.6
20260509223529 21 274 3.2 9.7 0.00 0.00 0.00 39 1011.6
20260509223027 21 271 6.4 6.4 0.00 0.00 0.00 39 1011.7
20260509222522 21 231 6.4 6.4 0.00 0.00 0.00 38 1011.6
20260509222018 21 265 3.2 4.8 0.00 0.00 0.00 39 1011.6
20260509221514 21 265 3.2 6.4 0.00 0.00 0.00 38 1011.6
20260509221010 21 284 4.8 6.4 0.00 0.00 0.00 37 1011.5
20260509220506 21 284 3.2 9.7 0.00 0.00 0.00 38 1011.6
20260509220003 21 273 3.2 12.9 0.00 0.00 0.00 36 1011.4
20260509215458 22 271 4.8 11.3 0.00 0.00 0.00 36 1011.4
20260509214956 21 265 4.8 4.8 0.00 0.00 0.00 37 1011.4
20260509214453 21 256 8.0 12.9 0.00 0.00 0.00 36 1011.4
20260509213949 21 245 4.8 9.7 0.00 0.00 0.00 35 1011.5
20260509213445 22 268 9.7 12.9 0.00 0.00 0.00 35 1011.4
20260509212943 22 237 4.8 4.8 0.00 0.00 0.00 35 1011.4
20260509212440 22 263 4.8 6.4 0.00 0.00 0.00 34 1011.2
20260509211936 22 264 3.2 6.4 0.00 0.00 0.00 35 1011.2
20260509211432 22 266 3.2 4.8 0.00 0.00 0.00 36 1010.9
20260509210928 21 269 3.2 4.8 0.00 0.00 0.00 36 1011.1
20260509210426 21 270 3.2 14.5 0.00 0.00 0.00 35 1010.7
20260509205921 21 243 3.2 4.8 0.00 0.00 0.00 35 1011.0
20260509205420 21 240 4.8 6.4 0.00 0.00 0.00 34 1010.6
20260509204917 21 240 6.4 12.9 0.00 0.00 0.00 34 1010.7
20260509204413 22 234 6.4 9.7 0.00 0.00 0.00 33 1010.6
20260509203910 22 255 4.8 12.9 0.00 0.00 0.00 34 1010.7
20260509203406 22 257 8.0 12.9 0.00 0.00 0.00 34 1010.7
20260509202904 23 240 8.0 12.9 0.00 0.00 0.00 33 1010.6
20260509202359 22 250 4.8 6.4 0.00 0.00 0.00 34 1010.5
20260509201854 22 243 4.8 6.4 0.00 0.00 0.00 34 1010.5
20260509201350 22 241 6.4 9.7 0.00 0.00 0.00 33 1010.4
20260509200847 23 241 6.4 11.3 0.00 0.00 0.00 33 1010.3
20260509200342 23 240 8.0 9.7 0.00 0.00 0.00 31 1010.4
20260509195839 25 237 6.4 16.1 0.00 0.00 0.00 30 1010.3
20260509195339 25 242 8.0 11.3 0.00 0.00 0.00 30 1010.5
20260509194839 25 307 3.2 9.7 0.00 0.00 0.00 32 1010.4
20260509194335 24 232 6.4 6.4 0.00 0.00 0.00 32 1010.5
20260509193833 22 276 3.2 3.2 0.00 0.00 0.00 36 1010.7
20260509193332 22 346 4.8 12.9 0.00 0.00 0.00 36 1010.5
20260509192828 22 101 0.0 3.2 0.00 0.00 0.00 42 1010.7
20260509192320 21 101 3.2 4.8 0.00 0.00 0.00 42 1010.7
20260509191814 21 101 0.0 0.0 0.00 0.00 0.00 40 1011.0
20260509191311 21 214 1.6 4.8 0.00 0.00 0.00 42 1011.0
20260509190806 21 213 1.6 3.2 0.00 0.00 0.00 42 1011.2
20260509190304 21 213 3.2 3.2 0.00 0.00 0.00 41 1011.0
20260509185802 21 214 3.2 4.8 0.00 0.00 0.00 42 1011.1
20260509185257 21 235 3.2 9.7 0.00 0.00 0.00 40 1011.3
20260509184755 22 242 6.4 11.3 0.00 0.00 0.00 40 1011.3
20260509184253 21 280 0.0 4.8 0.00 0.00 0.00 44 1011.3
20260509183749 21 285 9.7 11.3 0.00 0.00 0.00 42 1011.4
20260509183244 22 307 6.4 11.3 0.00 0.00 0.00 42 1011.5
20260509182739 22 310 9.7 12.9 0.00 0.00 0.00 41 1011.7
20260509182238 22 358 1.6 4.8 0.00 0.00 0.00 39 1011.5
20260509181734 21 359 1.6 1.6 0.00 0.00 0.00 42 1011.7
20260509181232 21 359 3.2 4.8 0.00 0.00 0.00 45 1011.7
20260509180729 20 359 3.2 3.2 0.00 0.00 0.00 45 1011.7
20260509180226 20 359 1.6 1.6 0.00 0.00 0.00 47 1012.0
20260509175722 20 359 1.6 4.8 0.00 0.00 0.00 47 1011.9
20260509175218 20 359 0.0 1.6 0.00 0.00 0.00 47 1012.2
20260509174714 19 359 1.6 1.6 0.00 0.00 0.00 50 1012.3
20260509174209 18 359 3.2 3.2 0.00 0.00 0.00 52 1012.3
20260509173705 18 359 0.0 0.0 0.00 0.00 0.00 55 1012.5
20260509173201 17 359 0.0 0.0 0.00 0.00 0.00 59 1012.9
20260509172657 16 358 0.0 1.6 0.00 0.00 0.00 59 1012.9
20260509172154 16 358 1.6 3.2 0.00 0.00 0.00 60 1012.9
20260509171649 16 358 0.0 1.6 0.00 0.00 0.00 61 1012.9
20260509171145 16 359 1.6 1.6 0.00 0.00 0.00 61 1012.9
20260509170643 15 358 1.6 1.6 0.00 0.00 0.00 63 1012.6
20260509170138 15 358 1.6 3.2 0.00 0.00 0.00 64 1012.4
20260509165637 15 358 3.2 4.8 0.00 0.00 0.00 65 1012.4
20260509165133 16 358 6.4 6.4 0.00 0.00 0.00 60 1012.5
20260509164629 17 312 11.3 14.5 0.00 0.00 0.00 54 1012.4
20260509164125 18 355 4.8 9.7 0.00 0.00 0.00 49 1012.4
20260509163623 18 243 1.6 3.2 0.00 0.00 0.00 49 1012.3
20260509163118 18 243 3.2 3.2 0.00 0.00 0.00 47 1012.3
20260509162615 18 224 0.0 1.6 0.00 0.00 0.00 45 1012.2
20260509162111 18 224 1.6 3.2 0.00 0.00 0.00 46 1012.3
20260509161603 18 224 1.6 3.2 0.00 0.00 0.00 44 1012.3
20260509161102 18 239 0.0 3.2 0.00 0.00 0.00 45 1012.2
20260509160559 19 295 3.2 6.4 0.00 0.00 0.00 44 1012.3
20260509160054 20 220 0.0 1.6 0.00 0.00 0.00 44 1012.4
20260509155550 20 235 1.6 4.8 0.00 0.00 0.00 43 1012.3
20260509155047 19 232 0.0 3.2 0.00 0.00 0.00 45 1012.3
20260509154543 19 267 1.6 3.2 0.00 0.00 0.00 46 1012.2
20260509154041 19 94 1.6 6.4 0.00 0.00 0.00 46 1012.4
20260509153538 18 322 0.0 1.6 0.00 0.00 0.00 48 1012.5
20260509153034 18 238 1.6 9.7 0.00 0.00 0.00 49 1012.6
20260509152530 18 85 3.2 4.8 0.00 0.00 0.00 47 1012.3
20260509152027 18 132 1.6 3.2 0.00 0.00 0.00 46 1012.3
20260509151523 18 100 1.6 3.2 0.00 0.00 0.00 48 1012.3
20260509151021 18 104 3.2 9.7 0.00 0.00 0.00 48 1012.3
20260509150518 19 151 3.2 3.2 0.00 0.00 0.00 45 1012.6
20260509150017 19 147 0.0 1.6 0.00 0.00 0.00 48 1012.6
20260509145512 18 147 4.8 4.8 0.00 0.00 0.00 46 1012.6
20260509145007 20 110 0.0 3.2 0.00 0.00 0.00 46 1012.5
20260509144505 19 109 3.2 6.4 0.00 0.00 0.00 46 1012.3
20260509144001 18 123 3.2 3.2 0.00 0.00 0.00 47 1012.5
20260509143458 18 123 1.6 1.6 0.00 0.00 0.00 46 1012.4
20260509142950 18 122 1.6 9.7 0.00 0.00 0.00 47 1012.5
20260509142446 18 74 4.8 9.7 0.00 0.00 0.00 48 1012.6
20260509141942 18 104 3.2 9.7 0.00 0.00 0.00 48 1012.7
20260509141439 19 332 1.6 4.8 0.00 0.00 0.00 49 1012.6
20260509140936 18 96 3.2 6.4 0.00 0.00 0.00 50 1013.0
20260509140432 18 119 3.2 12.9 0.00 0.00 0.00 52 1013.1
20260509135931 17 220 3.2 6.4 0.00 0.00 0.00 52 1013.1
20260509135427 17 201 1.6 3.2 0.00 0.00 0.00 53 1013.2
20260509134924 16 105 4.8 9.7 0.00 0.00 0.00 55 1013.1
20260509134422 16 129 1.6 3.2 0.00 0.00 0.00 56 1013.1
20260509133919 16 164 1.6 4.8 0.00 0.00 0.00 57 1013.5
20260509133416 15 157 1.6 3.2 0.00 0.00 0.00 59 1013.6
20260509132914 15 197 0.0 3.2 0.00 0.00 0.00 59 1013.7
20260509132412 15 221 0.0 0.0 0.00 0.00 0.00 59 1013.7
20260509131909 14 221 0.0 0.0 0.00 0.00 0.00 60 1013.6
20260509131406 13 221 1.6 3.2 0.00 0.00 0.00 60 1013.7
20260509130902 13 221 0.0 4.8 0.00 0.00 0.00 61 1013.7
20260509130357 13 230 0.0 1.6 0.00 0.00 0.00 62 1013.6
20260509125855 12 230 1.6 3.2 0.00 0.00 0.00 62 1013.8
20260509125351 12 230 1.6 3.2 0.00 0.00 0.00 62 1013.7
20260509124847 12 230 1.6 1.6 0.00 0.00 0.00 63 1013.4
20260509124344 12 230 1.6 1.6 0.00 0.00 0.00 64 1013.4
20260509123843 12 230 1.6 3.2 0.00 0.00 0.00 64 1013.6
20260509123340 12 230 1.6 1.6 0.00 0.00 0.00 64 1013.3
20260509122835 12 230 0.0 1.6 0.00 0.00 0.00 66 1013.3
20260509122332 11 230 0.0 1.6 0.00 0.00 0.00 67 1013.5
20260509121829 11 230 1.6 1.6 0.00 0.00 0.00 64 1013.5
20260509121326 11 230 0.0 0.0 0.00 0.00 0.00 64 1013.4
20260509120824 11 230 1.6 1.6 0.00 0.00 0.00 67 1013.5
20260509120322 11 230 0.0 0.0 0.00 0.00 0.00 67 1013.6
20260509115820 11 230 0.0 0.0 0.00 0.00 0.00 66 1013.6
20260509115316 11 230 0.0 1.6 0.00 0.00 0.00 63 1013.6
20260509114814 11 230 1.6 1.6 0.00 0.00 0.00 63 1013.6
20260509114313 11 230 1.6 3.2 0.00 0.00 0.00 63 1013.6
20260509113812 11 230 0.0 1.6 0.00 0.00 0.00 63 1013.6
20260509113308 10 230 1.6 4.8 0.00 0.00 0.00 63 1013.4
20260509112805 10 196 0.0 1.6 0.00 0.00 0.00 63 1013.7
20260509112306 10 197 0.0 1.6 0.00 0.00 0.00 63 1013.7
20260509111759 10 197 0.0 0.0 0.00 0.00 0.00 64 1013.4
20260509111256 10 197 0.0 0.0 0.00 0.00 0.00 64 1013.8
20260509110754 10 196 0.0 0.0 0.00 0.00 0.00 64 1013.4
20260509110250 10 196 0.0 0.0 0.00 0.00 0.00 64 1013.7
20260509105748 10 197 0.0 0.0 0.00 0.00 0.00 64 1013.7
20260509105245 10 196 0.0 1.6 0.00 0.00 0.00 63 1013.7
20260509104742 10 197 0.0 1.6 0.00 0.00 0.00 64 1013.3
20260509104239 10 196 0.0 1.6 0.00 0.00 0.00 63 1013.4
20260509103737 10 197 0.0 1.6 0.00 0.00 0.00 63 1013.6
20260509103234 10 197 0.0 1.6 0.00 0.00 0.00 63 1013.4
20260509102732 10 196 1.6 1.6 0.00 0.00 0.00 64 1013.6
20260509102228 10 197 0.0 1.6 0.00 0.00 0.00 63 1013.6
20260509101719 10 197 0.0 3.2 0.00 0.00 0.00 63 1013.5
20260509101216 10 196 1.6 1.6 0.00 0.00 0.00 62 1013.5
20260509100713 10 196 0.0 1.6 0.00 0.00 0.00 62 1013.4
20260509100210 10 197 1.6 3.2 0.00 0.00 0.00 62 1013.5
20260509095707 10 196 1.6 3.2 0.00 0.00 0.00 61 1013.7
20260509095205 10 223 1.6 4.8 0.00 0.00 0.00 61 1013.8
20260509094701 10 221 1.6 3.2 0.00 0.00 0.00 61 1013.6
20260509094158 10 216 3.2 4.8 0.00 0.00 0.00 61 1013.5
20260509093656 11 218 3.2 4.8 0.00 0.00 0.00 61 1013.6
20260509093153 11 205 4.8 6.4 0.00 0.00 0.00 60 1013.7
20260509092651 11 206 3.2 6.4 0.00 0.00 0.00 60 1013.5
20260509092149 11 207 4.8 4.8 0.00 0.00 0.00 60 1013.6
20260509091647 11 207 3.2 6.4 0.00 0.00 0.00 60 1013.8
20260509091142 11 207 1.6 4.8 0.00 0.00 0.00 60 1013.9
20260509090640 11 207 3.2 3.2 0.00 0.00 0.00 60 1013.7
20260509090137 11 207 1.6 3.2 0.00 0.00 0.00 61 1013.6
20260509085635 11 207 0.0 3.2 0.00 0.00 0.00 60 1013.6
20260509085130 11 205 3.2 3.2 0.00 0.00 0.00 60 1013.9
20260509084628 11 205 1.6 3.2 0.00 0.00 0.00 60 1013.7
20260509084125 11 205 0.0 1.6 0.00 0.00 0.00 60 1013.6
20260509083622 10 205 1.6 3.2 0.00 0.00 0.00 61 1013.6
20260509083118 10 205 3.2 3.2 0.00 0.00 0.00 61 1014.0
20260509082616 10 198 1.6 1.6 0.00 0.00 0.00 62 1013.9
20260509082113 10 198 0.0 1.6 0.00 0.00 0.00 62 1014.0
20260509081610 10 198 0.0 0.0 0.00 0.00 0.00 62 1014.1
20260509081107 10 222 1.6 3.2 0.00 0.00 0.00 62 1014.0
20260509080605 10 222 1.6 3.2 0.00 0.00 0.00 62 1013.8
20260509080103 10 222 0.0 0.0 0.00 0.00 0.00 62 1013.9
20260509075601 10 222 0.0 0.0 0.00 0.00 0.00 62 1014.1
20260509075059 10 222 0.0 1.6 0.00 0.00 0.00 62 1014.1
20260509074555 10 222 1.6 3.2 0.00 0.00 0.00 62 1013.9
20260509074052 10 222 0.0 3.2 0.00 0.00 0.00 62 1014.1
20260509073548 10 223 0.0 3.2 0.00 0.00 0.00 63 1014.0
20260509073044 10 224 0.0 1.6 0.00 0.00 0.00 63 1014.1
20260509072540 10 224 1.6 3.2 0.00 0.00 0.00 63 1014.3
20260509072038 10 224 0.0 1.6 0.00 0.00 0.00 63 1014.2
20260509071534 10 224 1.6 3.2 0.00 0.00 0.00 62 1014.3
20260509071032 10 223 1.6 4.8 0.00 0.00 0.00 62 1014.4
20260509070529 10 230 1.6 3.2 0.00 0.00 0.00 63 1014.2
20260509070025 10 230 1.6 3.2 0.00 0.00 0.00 63 1014.3
20260509065520 10 230 0.0 1.6 0.00 0.00 0.00 63 1014.4
20260509065017 10 230 0.0 3.2 0.00 0.00 0.00 62 1014.3
20260509064515 10 230 1.6 1.6 0.00 0.00 0.00 62 1014.4
20260509064013 10 237 1.6 4.8 0.00 0.00 0.00 62 1014.5
20260509063508 10 213 0.0 3.2 0.00 0.00 0.00 63 1014.5
20260509063005 10 214 0.0 0.0 0.00 0.00 0.00 63 1014.4
20260509062502 10 214 1.6 3.2 0.00 0.00 0.00 63 1014.7
20260509062000 10 223 1.6 3.2 0.00 0.00 0.00 63 1014.7
20260509061457 9 223 1.6 4.8 0.00 0.00 0.00 64 1014.6
20260509060954 9 244 3.2 3.2 0.00 0.00 0.00 65 1014.5
20260509060452 9 244 1.6 1.6 0.00 0.00 0.00 65 1014.7
20260509055947 9 244 1.6 1.6 0.00 0.00 0.00 65 1014.5
20260509055442 9 244 1.6 1.6 0.00 0.00 0.00 65 1014.5
20260509054939 9 244 0.0 3.2 0.00 0.00 0.00 64 1014.6
20260509054436 10 244 1.6 3.2 0.00 0.00 0.00 64 1015.0
20260509053934 10 244 1.6 1.6 0.00 0.00 0.00 63 1014.7
20260509053432 10 244 1.6 1.6 0.00 0.00 0.00 63 1014.7
20260509052929 10 244 1.6 1.6 0.00 0.00 0.00 62 1015.0
20260509052426 10 244 1.6 1.6 0.00 0.00 0.00 62 1014.8
20260509051924 10 244 1.6 1.6 0.00 0.00 0.00 62 1014.8
20260509051422 10 244 0.0 0.0 0.00 0.00 0.00 62 1014.8
20260509050918 10 244 0.0 0.0 0.00 0.00 0.00 61 1014.8
20260509050415 10 244 0.0 0.0 0.00 0.00 0.00 61 1014.8
20260509045912 10 244 0.0 0.0 0.00 0.00 0.00 60 1014.8